SL-14 DEB, 45288

Orbit data source: Space-Track

SL-14 DEB, 45288 is space debris in LEO originally from a launch on Thu, 15 Aug 1991 UTC launched from the Plesetsk Missile And Space Complex (PKMTR). Debris objects in space refer to the collection of defunct objects orbiting the Earth. Examples of debris include non-operational satellites, rocket bodies, and fragments generated from explosions, collisions, or faulty payload assembly.

Loading next visibility...
Identifier
45288, 1991-056AA
Orbit
LEO
Last TLE update
14 hours ago
Origin
Manufacturer
Unknown
Mission
Spacecraft
Bus & Motor
Unknown
Mass
Unknown
Launch date (UTC)
1991-08-15 (34 years ago)
Launch vehicle
Unknown
Launch site
Plesetsk Missile And Space Complex (PKMTR)
Object type
Payload
Rocket body
Debris
Shape & HBR
Unknown
Radar Cross Section
Small (<0.1 m²)

Expand to show TLE details & history

TLE from 14 hours ago
0 SL-14 DEB
1 45288U 91056AA  25181.82458214  .00001876  00000-0  61429-2 0  9995
2 45288  82.6128 123.3564 0282184 353.3558   6.3836 12.88273369251077
Epoch: 2025-06-30T19:47Z
TLE epoch observation values (Epoch: 2025-06-30T19:47:23.896Z)
Latitude
-0.00014°
Longitude
-92.62203°
Altitude
1,095.639 km
Speed
7.406 km/s
True Right ascension
08h 13m 25s
True Declination
0° 00' 01"
Sunlit
Object was in daylight at epoch
Visualization orbit readout
Latitude
-55.75973°
Longitude
97.90745°
Altitude
1,418.94 km
Speed
7.109 km/s
Apparent Right ascension
13h 29m 12s
Apparent Declination
-84° 06' 17"
Sunlit
Object is in full shadow
Visualization observer readout
Local Sidereal Time
21:43:01
Azimuth
186.727° SSW
Elevation
-42.976°
Doppler factor
1
Orbital elements
Apogee altitude
1,522.488 km
Perigee altitude
1,088.839 km
Semi-major axis
7,683.8 km
Eccentricity
0.02822
Inclination
82.6128°
RAAN
123.3564°
Arg. of periapsis
353.3558°
True anomaly
Unknown
Mean anomaly
6.3836°
Eccentric anomaly
Unknown
Mean motion
3.2224 °/min
Orbital period
111.72 mins
BSTAR
0.0061429
Loading maneuver chart data...
Loading SW <> Apogee altitude chart data...
Loading historical data...
Loading historical data...
Loading historical data...
Loading historical data...
Loading historical data...
Loading historical data...
Loading historical data...

SL-14 DEB Visibility forecast

Observer location: undefined°, undefined°

Span
Click to sort rows by Start time (UTC) header in descending order
Start Az.
Max El. time (UTC)
Max El. Az.
Max El.
End time (UTC)
End Az.
13 mins2025-07-01 20:06:37.795Z158.823° S2025-07-01 20:12:37.795Z97.682° ESE35.363°2025-07-01 20:19:37.795Z19.983° NNE
10 mins2025-07-01 22:01:37.795Z240.35° WSW2025-07-01 22:05:37.795Z285.591° WNW26.337°2025-07-01 22:11:37.795Z345.783° N
9 mins2025-07-02 05:57:37.795Z35.315° NE2025-07-02 06:01:37.795Z66.445° ENE16.54°2025-07-02 06:06:37.795Z101.554° ESE
16 mins2025-07-02 07:47:37.795Z354.586° N2025-07-02 07:55:37.795Z128.103° SE44.526°2025-07-02 08:03:37.795Z170.957° S
10 mins2025-07-02 09:42:37.795Z314.013° NW2025-07-02 09:46:37.795Z282.28° WNW19.41°2025-07-02 09:52:37.795Z238.321° WSW
|